Location: Cheching
(60.0667°N, 164.2167°W)
Time: 07:31:57
(UTC+00:00)

XW-2D - Pass Details

Date: 24 January 2021
Orbit: 505 x 525 km, 97.5° (Epoch: 09 March)

Event Time Altitude Azimuth Distance (km) Brightness Sun altitude
Rises 03:30:18 0° 159° (SSE) 2,626 ? -5.0°
Reaches altitude 10° 03:32:22 10° 158° (SSE) 1,747 ? -5.3°
Maximum altitude 03:36:09 81° 72° (ENE) 535 ? -5.7°
Drops below altitude 10° 03:39:58 10° 345° (NNW) 1,773 ? -6.1°
Sets 03:42:05 0° 345° (NNW) 2,669 ? -6.3°
